Regional Weather Roundup
Issued by NWS

Home | Current Version | Previous Version | Text Only | Print | Product List | Glossary On
Versions: 1 2 3 4 5 6 7 8 9 10 11 12 13 14 15 16 17 18 19 20 21 22 23 24 25 26 27 28 29 30 31 32 33 34 35 36 37 38 39 40 41 42 43 44 45 46 47 48 49 50
000
ASUS45 KPSR 021610
RWRAZ

ARIZONA REGIONAL HOURLY WEATHER ROUNDUP
NATIONAL WEATHER SERVICE PHOENIX AZ
900 AM MST MON MAR 02 2015

NOTE: FAIR INDICATES FEW OR NO CLOUDS BELOW 12,000 FEET WITH NO
SIGNIFICANT WEATHER AND/OR OBSTRUCTIONS TO VISIBILITY.

AZZ001>003-036-021700-
NORTHWEST ARIZONA

CITY           SKY/WX    TMP DP  RH WIND       PRES   REMARKS
BULLHEAD CITY  LGT RAIN  48  48 100 S7        29.90R
KINGMAN        LGT RAIN  41  37  86 SE7       29.83S
$$

AZZ004>008-015-016-018-021700-
NORTH CENTRAL ARIZONA

CITY           SKY/WX    TMP DP  RH WIND       PRES   REMARKS
GRAND CANYON   HVY SNOW  32  31  96 SW6       29.83S VSB 1/4 WCI  26
PRESCOTT       LGT SNOW  34  31  88 SW7       29.88R FOG     WCI  28
FLAGSTAFF      RAIN      37  34  89 S23G38    29.83R FOG     WCI  26
PAYSON         LGT RAIN  45  45 100 S18G31    29.93S
PAGE           CLOUDY    39  36  89 NW6       29.78F WCI  35
$$

AZZ009>014-017-021700-
NORTHEAST ARIZONA

CITY           SKY/WX    TMP DP  RH WIND       PRES   REMARKS
WINSLOW        SUNNY     51  41  68 S25G33    29.85F
SAINT JOHNS    SUNNY     55  28  35 S29G46    29.91F
WINDOW ROCK    MOSUNNY   43  36  76 CALM      29.96F
SHOW LOW       CLOUDY    43  36  75 S23G31    29.99R
$$

AZZ023-021700-
GREATER PHOENIX AREA

CITY           SKY/WX    TMP DP  RH WIND       PRES   REMARKS
PHOENIX        LGT RAIN  54  50  86 W14G26    29.89R
BUCKEYE        CLOUDY    50  50 100 W9        29.96R
GLENDALE       LGT RAIN  54  54 100 S12       29.91R
DEER VALLEY    LGT RAIN  54  52  93 SW12      29.88R
SCOTTSDALE     LGT RAIN  61  52  72 S5        29.88S
MESA-GATEWAY   PTSUNNY   63  48  59 SE16      29.90F
CHANDLER       CLOUDY    64  50  59 S22       29.89R
$$

AZZ027-028-021700-
SOUTHWEST MARICOPA COUNTY AND PINAL COUNTY

CITY           SKY/WX    TMP DP  RH WIND       PRES   REMARKS
CASA GRANDE    PTSUNNY   64  46  52 S17G24    29.90S
GILA BEND      LGT RAIN  50  50 100 W7        29.95R
$$

AZZ503-504-507>509-021700-
SOUTHEAST ARIZONA

CITY           SKY/WX    TMP DP  RH WIND       PRES   REMARKS
TUCSON         CLOUDY    63  42  46 S15G26    29.98R
DAVIS-MONTHAN  CLOUDY    62  41  46 S21G29    29.97R
RYAN FIELD       N/A     63  46  55 SW10      29.98R
NOGALES        CLOUDY    56  43  61 S21G26    30.02S
SIERRA VISTA   CLOUDY    57  39  51 S24G47    29.98F
DOUGLAS        PTSUNNY   58  40  51 S22       30.04R
SAFFORD        PTSUNNY   62  35  36 S15       29.96R
$$

AZZ020-021-025-026-031-021700-
SOUTHWEST ARIZONA

CITY           SKY/WX    TMP DP  RH WIND       PRES   REMARKS
YUMA           LGT RAIN  54  49  83 CALM      29.92S
$$

CAZ031-033-041-043-047-048-061-021700-
SOUTHERN CALIFORNIA

CITY           SKY/WX    TMP DP  RH WIND       PRES   REMARKS
DOWNTOWN L.A.  MOSUNNY   51  47  86 CALM      29.92R
L.A. AIRPORT   PTSUNNY   50  47  89 NE6       29.92R
SAN DIEGO      PTSUNNY   54  47  77 SE9       29.94S
BURBANK        PTSUNNY   50  43  77 CALM      29.90S
ONTARIO        MOSUNNY   50  44  80 E3        29.91R
RIVERSIDE      PTSUNNY   50  43  77 NE6       29.91S
PALM SPRINGS   PTSUNNY   55  47  74 CALM      29.92R
EL CENTRO NAS  PTSUNNY   55  50  83 E3        29.91S
IMPERIAL       MOSUNNY   54  51  90 SE3       29.91S
BLYTHE         CLOUDY    52  51  97 S9        29.91R
NEEDLES        CLOUDY    52  46  80 SW10      29.89R
$$

NVZ020-UTZ003-021700-
SOUTHERN NEVADA-UTAH

CITY           SKY/WX    TMP DP  RH WIND       PRES   REMARKS
LAS VEGAS      PTSUNNY   46  43  89 S6        29.77S
SALT LAKE CITY LGT RAIN  38  33  82 N3        29.78S
$$

NMZ009-TXZ055-021700-
NEW MEXICO-WEST TEXAS

CITY           SKY/WX    TMP DP  RH WIND       PRES   REMARKS
ALBUQUERQUE    PTSUNNY   37  30  75 N8        30.06R WCI  31
EL PASO        CLOUDY    54  32  43 S9        30.09R
$$


........................KEY........................
SKY/WX - SKY CONDITION/WEATHER
TMP    - TEMPERATURE IN FAHRENHEIT
DP     - DEW POINT IN FAHRENHEIT
RH     - RELATIVE HUMIDITY IN PERCENT
WIND   - DIRECTION AND SPEED IN MILES PER HOUR (MPH)
VRB    - VARIABLE WIND DIRECTION
PRES   - MEAN SEA LEVEL PRESSURE IN INCHES OF MERCURY
         F - FALLING PRESSURE   R - RISING PRESSURE
         S - STEADY PRESSURE
VSB    - VISIBILITY IN MILES
HX     - HEAT INDEX IN FAHRENHEIT
WCI    - WIND CHILL INDEX IN FAHRENHEIT
TC     - TEMPERATURE IN CELSIUS WHICH IS ALSO KNOWN AS
         TEMPERATURE IN CENTIGRADE
AFB    - AIR FORCE BASE
         LUKE AFB IS LUKE AIR FORCE BASE
         DAVIS-MONTHAN IS DAVIS-MONTHAN AIR FORCE BASE
NAS    - NAVAL AIR STATION
         EL CENTRO NAS IS EL CENTRO NAVAL AIR STATION
N/A    - NOT AVAILABLE


USA.gov is the U.S. government's official web portal to all federal, state and local government web resources and services.